Weather History for Durango, Mexico

Change the Weather History Date:

Wednesday, March 27, 2013

  Actual Average Record
Temperature  
Mean Temperature 64 °F -  
Max Temperature 84 °F 80 °F 87 °F (2011)
Min Temperature 43 °F 45 °F 35 °F (2003)
Degree Days  
Heating Degree Days 2    
Growing Degree Days 14 (Base 50)    
Moisture  
Dew Point 28 °F    
Average Humidity 27    
Maximum Humidity 60    
Minimum Humidity 9    
Precipitation  
Precipitation 0.00 in - - ()
Sea Level Pressure  
Sea Level Pressure 30.06 in    
Wind  
Wind Speed 5 mph ()    
Max Wind Speed 22 mph    
Max Gust Speed -    
Visibility 12.2 miles    
Events      
Averages and records for this station are not official NWS values.
T = Trace of Precipitation, MM = Missing Value Source: Averaged Metar Reports

Daily Weather History Graph

Daily Weather History Graph

Search for Another Location

Airport:

Trip Planner

Search our weather history database for the weather conditions in past years. The results will help you decide how hot, cold, wet, or windy it might be!

Date:

Astronomy

Mar. 27, 2013 Rise Set
Actual Time 6:54 AM CST 7:12 PM CST
Civil Twilight 6:32 AM CST 7:34 PM CST
Nautical Twilight 6:05 AM CST 8:01 PM CST
Astronomical Twilight 5:38 AM CST 8:28 PM CST
Moon 7:49 PM CST (3/27) 6:52 AM CST (3/27)
Length of Visible Light 13h 02m
Length of Day
12h 17m
Full, 100% of the Moon is Illuminated
Mar 27
Full
Apr 2
Last Quarter
Apr 10
New
Apr 18
First Quarter
Apr 25
Full

Hourly Weather History & Observations

Time (CST) Temp. Windchill Dew Point Humidity Pressure Visibility Wind Dir Wind Speed Gust Speed Precip Events Conditions
2:59 AM 53 °F - 36 °F 41%  in 6 mi Calm Calm - -  
5:50 AM 45 °F - 33 °F 52%  in 6 mi Calm Calm - -  
6:04 AM 37.4 °F 34.9 °F 23.0 °F 56% 29.96 in 10.0 mi WSW 3.5 mph - N/A   Clear
6:40 AM 35.6 °F 31.7 °F 23.0 °F 60% 30.24 in 12.0 mi North 4.6 mph - N/A   Clear
7:42 AM 39.2 °F - 23.0 °F 52% 30.28 in 12.0 mi Calm Calm - N/A   Clear
8:41 AM 51.8 °F - 28.4 °F 41% 30.00 in 12.0 mi Calm Calm - N/A   Clear
8:55 AM 50 °F - 33 °F 39% 30.09 in 19 mi Calm Calm - -  
9:41 AM 62.6 °F - 28.4 °F 27% 30.30 in 12.0 mi ENE 3.5 mph - N/A   Clear
10:42 AM 68.0 °F - 24.8 °F 20% 30.28 in 12.0 mi SE 3.5 mph - N/A   Partly Cloudy
11:42 AM 71.6 °F - 24.8 °F 17% 29.93 in 14.0 mi SSW 10.4 mph - N/A   Partly Cloudy
11:50 AM 74 °F - 27 °F 9% 30.15 in 19 mi Calm Calm - -   Partly Cloudy
12:41 PM 75.2 °F - 24.8 °F 15% 30.22 in 14.0 mi SSW 18.4 mph - N/A   Mostly Cloudy
1:45 PM 77.0 °F - 23.0 °F 13% 30.19 in 14.0 mi WSW 15.0 mph - N/A   Mostly Cloudy
2:43 PM 78.8 °F - 23.0 °F 13% 29.87 in 14.0 mi SW 21.9 mph - N/A   Mostly Cloudy
2:50 PM 78 °F - 33 °F 11% 29.86 in 25 mi SW 8.9 mph - -   Mostly Cloudy
3:40 PM 78.8 °F - 21.2 °F 12% 30.14 in 14.0 mi SW 19.6 mph - N/A   Mostly Cloudy
4:42 PM 77.0 °F - 21.2 °F 12% 30.14 in 14.0 mi SW 16.1 mph - N/A   Mostly Cloudy
5:45 PM 73 °F - 34 °F 14% 29.77 in 28 mi WSW 8.9 mph - -   Partly Cloudy
5:49 PM 75.2 °F - 23.0 °F 14% 29.90 in 14.0 mi WSW 17.3 mph - N/A   Overcast
6:41 PM 71.6 °F - 26.6 °F 19% 30.19 in 14.0 mi WSW 17.3 mph - N/A   Mostly Cloudy
7:45 PM 69.8 °F - 26.6 °F 20% 30.20 in 12.0 mi West 12.7 mph - N/A   Mostly Cloudy
8:40 PM 65 °F - 36 °F 22% 29.79 in 6 mi WNW 4.5 mph - -   Scattered Clouds
11:50 PM 60 °F - 37 °F 31% 29.86 in 6 mi Calm Calm - -   Overcast